EGXPEGNH

Guest
Details From EGXP - RAF Scampton
To EGNH - Blackpool
Flight Number -
Tags generated
Created
Modified
Stats Distance 93 nm / 172 km
Max Altitude 5,000 ft / 1,524 m
Waypoints 3
Social Downloads 2
Likes 0
Share VATSIM

Download

Looking for another format? Having issues loading an existing format? Contact us
Advertisement - Login to hide

Notes

Basic altitude profile: - Ascent Rate: 2500ft/min - Ascent Speed: 250kts - Cruise Altitude: 35000ft - Cruise Speed: 420kts - Descent Rate: 1500ft/min - Descent Speed: 250kts Options: - Use NATs: yes - Use PACOTS: yes - Use low airways: yes - Use high airways: yes

Route

EGXP DOPEK EGNH

ID Type Via Altitude Latitude Longitude Leg Dist Tot Dist Heading (true) Name
O EGXP APT - 0 ft / 0 m 53.30794˚ -0.55083˚ - 0 nm - RAF Scampton
DOPEK FIX - 5,000 ft / 1,524 m 53.38444˚ -0.92556˚ 14 nm 14 nm 289° / 289° -
O EGNH APT - 0 ft / 0 m 53.77238˚ -3.03261˚ 78 nm 92 nm 288° / 286° Blackpool

Altitude Profile

Advertisement - Login to hide

EGXP

Details ICAO EGXP
Name RAF Scampton
Region United Kingdom
Timezone Europe/London (UTC+1.0)
Stats Elevation 202 ft / 62 m (AMSL)
Location 53.307944° -0.550831°
Runways 1
Magnetic Variation 0.739° W

METAR

EGXP 272050Z AUTO 05009KT 9999 // SCT060/// 14/11 Q1018

Decode

TAF

Not found

Departure Runways

ID Width Length Bearing (true) Bearing (mag) Surface Threshold Offset Overrun Length
04 200 ft / 61 m 8,974 ft / 2,735 m 41.07° 41.81° Asphalt 0 ft / 0 m 0 ft / 0 m
22 200 ft / 61 m 8,974 ft / 2,735 m 221.09° 221.83° Asphalt 0 ft / 0 m 0 ft / 0 m

EGNH

Details ICAO EGNH (BLK)
Name Blackpool
Region United Kingdom
Timezone Europe/London (UTC+1.0)
Stats Elevation 34 ft / 10 m (AMSL)
Location 53.772383° -3.032609°
Runways 3
Magnetic Variation 1.739° W

METAR

EGNH 271950Z 09008KT 9999 VCSH FEW035 20/14 Q1018

Decode

TAF

Not found

Destination Runways

ID Width Length Bearing (true) Bearing (mag) Surface Threshold Offset Overrun Length
07 98 ft / 30 m 4,204 ft / 1,281 m 67.79° 69.53° Asphalt 262 ft / 80 m 0 ft / 0 m
10 151 ft / 46 m 6,112 ft / 1,863 m 94.65° 96.39° Asphalt 0 ft / 0 m 0 ft / 0 m
13 75 ft / 23 m 3,034 ft / 925 m 127.37° 129.11° Asphalt 0 ft / 0 m 0 ft / 0 m
25 98 ft / 30 m 4,204 ft / 1,281 m 247.81° 249.55° Asphalt 1,936 ft / 590 m 0 ft / 0 m
28 151 ft / 46 m 6,112 ft / 1,863 m 274.67° 276.41° Asphalt 0 ft / 0 m 0 ft / 0 m
31 75 ft / 23 m 3,034 ft / 925 m 307.38° 309.12° Asphalt 0 ft / 0 m 0 ft / 0 m

Approach Navaids

Runway Type Ident Frequency Range Bearing (true) Bearing (mag) Slope Elevation
28 Localiser IBPL 108.15 MHz 18 nm / 33 km 274.64° 276.38° - 55 ft / 17 m (AMSL)
28 Glidescope IBPL 108.15 MHz 10 nm / 19 km 274.66° 276.40° 3.00° 55 ft / 17 m (AMSL)